Time,TemperatureF,DewpointF,PressureIn,WindDirection,WindDirectionDegrees,WindSpeedMPH,WindSpeedGustMPH,Humidity,HourlyPrecipIn,Conditions,Clouds,dailyrainin,SolarRadiationWatts/m^2,SoftwareType,DateUTC
2013-07-03 00:02:00,73.0,66.0,-100.00,WSW,238,2.0,11.0,78,0.00,,,0.15,0.000000,,2013-07-03 04:02:00,
2013-07-03 00:11:00,72.0,65.0,-100.00,WNW,282,3.0,11.0,78,0.00,,,0.15,0.000000,,2013-07-03 04:11:00,
2013-07-03 00:34:00,72.0,65.0,-100.00,WNW,282,3.0,11.0,78,0.00,,,0.15,0.000000,,2013-07-03 04:34:00,
2013-07-03 00:43:00,72.0,65.0,-100.00,WNW,282,3.0,11.0,78,0.00,,,0.15,0.000000,,2013-07-03 04:43:00,
2013-07-03 00:52:00,72.0,65.0,-100.00,WNW,282,3.0,11.0,78,0.00,,,0.15,0.000000,,2013-07-03 04:52:00,
2013-07-03 01:02:00,72.0,65.0,-100.00,WNW,282,3.0,11.0,78,0.00,,,0.15,0.000000,,2013-07-03 05:02:00,
2013-07-03 01:11:00,71.0,64.0,-100.00,West,264,6.0,11.0,78,0.00,,,0.13,0.000000,,2013-07-03 05:11:00,
2013-07-03 01:48:00,71.0,64.0,-100.00,West,264,6.0,11.0,78,0.00,,,0.13,0.000000,,2013-07-03 05:48:00,
2013-07-03 02:01:00,71.0,64.0,-100.00,West,264,6.0,11.0,78,0.00,,,0.13,0.000000,,2013-07-03 06:01:00,
2013-07-03 02:11:00,71.0,64.0,-100.00,West,273,4.0,11.0,79,0.00,,,0.12,0.000000,,2013-07-03 06:11:00,
2013-07-03 02:50:00,71.0,64.0,-100.00,West,273,4.0,11.0,79,0.00,,,0.12,0.000000,,2013-07-03 06:50:00,
2013-07-03 02:58:00,71.0,64.0,-100.00,West,273,4.0,11.0,79,0.00,,,0.12,0.000000,,2013-07-03 06:58:00,
2013-07-03 03:08:00,71.0,64.0,-100.00,West,273,4.0,11.0,79,0.00,,,0.12,0.000000,,2013-07-03 07:08:00,
2013-07-03 03:11:00,71.0,64.0,-100.00,West,266,5.0,13.0,79,0.00,,,0.12,0.000000,,2013-07-03 07:11:00,
2013-07-03 03:48:00,71.0,64.0,-100.00,West,266,5.0,13.0,79,0.00,,,0.12,0.000000,,2013-07-03 07:48:00,
2013-07-03 04:11:00,71.0,65.0,-100.00,West,272,3.0,14.0,81,0.00,,,0.12,0.000000,,2013-07-03 08:11:00,
2013-07-03 04:48:00,71.0,65.0,-100.00,West,272,3.0,14.0,81,0.00,,,0.12,0.000000,,2013-07-03 08:48:00,
2013-07-03 04:58:00,71.0,65.0,-100.00,West,272,3.0,14.0,81,0.00,,,0.12,0.000000,,2013-07-03 08:58:00,
2013-07-03 05:11:00,70.0,64.0,-100.00,WSW,241,3.0,16.0,81,0.00,,,0.12,0.000000,,2013-07-03 09:11:00,
2013-07-03 05:48:00,70.0,64.0,-100.00,WSW,241,3.0,16.0,81,0.00,,,0.12,0.000000,,2013-07-03 09:48:00,
2013-07-03 05:58:00,70.0,64.0,-100.00,WSW,241,3.0,16.0,81,0.00,,,0.12,0.000000,,2013-07-03 09:58:00,
2013-07-03 06:06:00,70.0,64.0,-100.00,WSW,241,3.0,16.0,81,0.00,,,0.12,0.000000,,2013-07-03 10:06:00,
2013-07-03 06:11:00,71.0,64.0,-100.00,West,262,4.0,12.0,78,0.00,,,0.07,13.000000,,2013-07-03 10:11:00,
2013-07-03 06:47:00,71.0,64.0,-100.00,West,262,4.0,12.0,78,0.00,,,0.07,13.000000,,2013-07-03 10:47:00,
2013-07-03 06:56:00,71.0,64.0,-100.00,West,262,4.0,12.0,78,0.00,,,0.07,13.000000,,2013-07-03 10:56:00,
2013-07-03 07:11:00,70.0,64.0,-100.00,WSW,249,5.0,10.0,81,0.00,,,0.01,39.000000,,2013-07-03 11:11:00,
2013-07-03 07:46:00,70.0,64.0,-100.00,WSW,249,5.0,10.0,81,0.00,,,0.01,39.000000,,2013-07-03 11:46:00,
2013-07-03 07:59:00,70.0,64.0,-100.00,WSW,249,5.0,10.0,81,0.00,,,0.01,39.000000,,2013-07-03 11:59:00,
2013-07-03 08:08:00,70.0,64.0,-100.00,WSW,249,5.0,10.0,81,0.00,,,0.01,39.000000,,2013-07-03 12:08:00,
2013-07-03 08:11:00,70.0,65.0,-100.00,NW,304,3.0,10.0,83,0.00,,,0.01,47.000000,,2013-07-03 12:11:00,
2013-07-03 08:47:00,70.0,65.0,-100.00,NW,304,3.0,10.0,83,0.00,,,0.01,47.000000,,2013-07-03 12:47:00,
2013-07-03 08:59:00,70.0,65.0,-100.00,NW,304,3.0,10.0,83,0.00,,,0.01,47.000000,,2013-07-03 12:59:00,
2013-07-03 09:08:00,70.0,65.0,-100.00,NW,304,3.0,10.0,83,0.00,,,0.01,47.000000,,2013-07-03 13:08:00,
2013-07-03 09:11:00,71.0,65.0,-100.00,WNW,282,4.0,11.0,80,0.00,,,0.01,107.000000,,2013-07-03 13:11:00,
2013-07-03 10:07:00,71.0,65.0,-100.00,WNW,282,4.0,11.0,80,0.00,,,0.01,107.000000,,2013-07-03 14:07:00,
2013-07-03 10:48:00,73.0,66.0,-100.00,WSW,251,4.0,10.0,79,0.00,,,0.01,230.000000,,2013-07-03 14:48:00,
2013-07-03 10:56:00,73.0,66.0,-100.00,WSW,251,4.0,10.0,79,0.00,,,0.01,230.000000,,2013-07-03 14:56:00,
2013-07-03 11:06:00,73.0,66.0,-100.00,WSW,251,4.0,10.0,79,0.00,,,0.01,230.000000,,2013-07-03 15:06:00,
2013-07-03 11:11:00,73.0,68.0,-100.00,NW,319,3.0,13.0,83,0.00,,,0.01,303.000000,,2013-07-03 15:11:00,
2013-07-03 11:49:00,73.0,68.0,-100.00,NW,319,3.0,13.0,83,0.00,,,0.01,303.000000,,2013-07-03 15:49:00,
2013-07-03 11:57:00,73.0,68.0,-100.00,NW,319,3.0,13.0,83,0.00,,,0.01,303.000000,,2013-07-03 15:57:00,
2013-07-03 12:07:00,73.0,68.0,-100.00,NW,319,3.0,13.0,83,0.00,,,0.01,303.000000,,2013-07-03 16:07:00,
2013-07-03 12:11:00,77.0,67.0,-100.00,WNW,282,3.0,9.0,71,0.00,,,0.01,393.000000,,2013-07-03 16:11:00,
2013-07-03 12:47:00,77.0,67.0,-100.00,WNW,282,3.0,9.0,71,0.00,,,0.01,393.000000,,2013-07-03 16:47:00,
2013-07-03 13:01:00,77.0,67.0,-100.00,WNW,282,3.0,9.0,71,0.00,,,0.01,393.000000,,2013-07-03 17:01:00,
2013-07-03 13:09:00,77.0,67.0,-100.00,WNW,282,3.0,9.0,71,0.00,,,0.01,393.000000,,2013-07-03 17:09:00,
2013-07-03 13:11:00,78.0,66.0,-100.00,WNW,282,6.0,11.0,67,0.00,,,0.01,684.000000,,2013-07-03 17:11:00,
2013-07-03 13:50:00,78.0,66.0,-100.00,WNW,282,6.0,11.0,67,0.00,,,0.01,684.000000,,2013-07-03 17:50:00,
2013-07-03 13:56:00,78.0,66.0,-100.00,WNW,282,6.0,11.0,67,0.00,,,0.01,684.000000,,2013-07-03 17:56:00,
2013-07-03 14:08:00,78.0,66.0,-100.00,WNW,282,6.0,11.0,67,0.00,,,0.01,684.000000,,2013-07-03 18:08:00,
2013-07-03 14:11:00,76.0,67.0,-100.00,West,272,3.0,10.0,73,0.00,,,0.00,307.000000,,2013-07-03 18:11:00,
2013-07-03 14:59:00,76.0,67.0,-100.00,West,272,3.0,10.0,73,0.00,,,0.00,307.000000,,2013-07-03 18:59:00,
2013-07-03 15:05:00,76.0,67.0,-100.00,West,272,3.0,10.0,73,0.00,,,0.00,307.000000,,2013-07-03 19:05:00,
2013-07-03 15:11:00,81.0,67.0,-100.00,WSW,256,5.0,11.0,63,0.00,,,0.00,617.000000,,2013-07-03 19:11:00,
2013-07-03 15:49:00,81.0,67.0,-100.00,WSW,256,5.0,11.0,63,0.00,,,0.00,617.000000,,2013-07-03 19:49:00,
2013-07-03 16:06:00,81.0,67.0,-100.00,WSW,256,5.0,11.0,63,0.00,,,0.00,617.000000,,2013-07-03 20:06:00,
2013-07-03 16:11:00,80.0,68.0,-100.00,WSW,255,3.0,10.0,66,0.00,,,0.00,568.000000,,2013-07-03 20:11:00,
2013-07-03 16:47:00,80.0,68.0,-100.00,WSW,255,3.0,10.0,66,0.00,,,0.00,568.000000,,2013-07-03 20:47:00,
2013-07-03 16:57:00,80.0,68.0,-100.00,WSW,255,3.0,10.0,66,0.00,,,0.00,568.000000,,2013-07-03 20:57:00,
2013-07-03 17:06:00,80.0,68.0,-100.00,WSW,255,3.0,10.0,66,0.00,,,0.00,568.000000,,2013-07-03 21:06:00,
2013-07-03 17:45:00,80.0,67.0,-100.00,SW,236,5.0,10.0,65,0.00,,,0.00,524.000000,,2013-07-03 21:45:00,
2013-07-03 17:55:00,80.0,67.0,-100.00,SW,236,5.0,10.0,65,0.00,,,0.00,524.000000,,2013-07-03 21:55:00,
2013-07-03 18:06:00,80.0,67.0,-100.00,SW,236,5.0,10.0,65,0.00,,,0.00,524.000000,,2013-07-03 22:06:00,
2013-07-03 18:11:00,81.0,68.0,-100.00,West,267,1.0,10.0,64,0.00,,,0.00,436.000000,,2013-07-03 22:11:00,
2013-07-03 18:47:00,81.0,68.0,-100.00,West,267,1.0,10.0,64,0.00,,,0.00,436.000000,,2013-07-03 22:47:00,
2013-07-03 18:57:00,81.0,68.0,-100.00,West,267,1.0,10.0,64,0.00,,,0.00,436.000000,,2013-07-03 22:57:00,
2013-07-03 19:11:00,76.0,66.0,-100.00,WSW,244,5.0,13.0,71,0.00,,,0.00,197.000000,,2013-07-03 23:11:00,
2013-07-03 19:46:00,76.0,66.0,-100.00,WSW,244,5.0,13.0,71,0.00,,,0.00,197.000000,,2013-07-03 23:46:00,
2013-07-03 19:56:00,76.0,66.0,-100.00,WSW,244,5.0,13.0,71,0.00,,,0.00,197.000000,,2013-07-03 23:56:00,
2013-07-03 20:11:00,75.0,67.0,-100.00,WSW,254,4.0,12.0,75,0.00,,,0.00,62.000000,,2013-07-04 00:11:00,
2013-07-03 20:51:00,75.0,67.0,-100.00,WSW,254,4.0,12.0,75,0.00,,,0.00,62.000000,,2013-07-04 00:51:00,
2013-07-03 20:57:00,75.0,67.0,-100.00,WSW,254,4.0,12.0,75,0.00,,,0.00,62.000000,,2013-07-04 00:57:00,
2013-07-03 21:06:00,75.0,67.0,-100.00,WSW,254,4.0,12.0,75,0.00,,,0.00,62.000000,,2013-07-04 01:06:00,
2013-07-03 21:47:00,70.0,68.0,-100.00,East,100,1.0,7.0,92,0.00,,,0.00,5.000000,,2013-07-04 01:47:00,
2013-07-03 21:57:00,70.0,68.0,-100.00,East,100,1.0,7.0,92,0.00,,,0.00,5.000000,,2013-07-04 01:57:00,
2013-07-03 22:08:00,70.0,68.0,-100.00,East,100,1.0,7.0,92,0.00,,,0.00,5.000000,,2013-07-04 02:08:00,
2013-07-03 22:11:00,68.0,67.0,-100.00,SE,130,1.0,4.0,95,0.00,,,0.00,0.000000,,2013-07-04 02:11:00,
2013-07-03 22:49:00,68.0,67.0,-100.00,SE,130,1.0,4.0,95,0.00,,,0.00,0.000000,,2013-07-04 02:49:00,
2013-07-03 22:57:00,68.0,67.0,-100.00,SE,130,1.0,4.0,95,0.00,,,0.00,0.000000,,2013-07-04 02:57:00,
2013-07-03 23:05:00,68.0,67.0,-100.00,SE,130,1.0,4.0,95,0.00,,,0.00,0.000000,,2013-07-04 03:05:00,
2013-07-03 23:11:00,69.0,67.0,-100.00,SSE,151,2.0,5.0,92,0.00,,,-99.99,0.000000,,2013-07-04 03:11:00,
2013-07-03 23:46:00,69.0,67.0,-100.00,SSE,151,2.0,5.0,92,0.00,,,-99.99,0.000000,,2013-07-04 03:46:00,
2013-07-03 23:57:00,69.0,67.0,-100.00,SSE,151,2.0,5.0,92,0.00,,,-99.99,0.000000,,2013-07-04 03:57:00,